359P/LONEOS (2017)

Japanese version
Home page
Updated on November 7, 2017

---------------------------------------------------------------------

* Profile

Designation 359P/2017 Q2
Recovery Date August 22, 2017
Magnitude 20.6 mag
Recoverer Pan-STARRS 1 telescope (Haleakala)

* Pictures

* Orbital Elements

Epoch 2017 Sept. 4.0 TT = JDT 2458000.5
T 2017 Aug. 19.98807 TT                                 MPCW
q   3.1398379            (2000.0)            P               Q
n   0.09869494     Peri.  200.00868     +0.98147789     +0.16932007
a   4.6373812      Node   149.80306     -0.14237760     +0.95768995
e   0.3229287      Incl.   10.26386     -0.12817866     +0.23272444
P   9.99
From 41 observations 2007 Aug. 21-2017 Aug. 23, mean residual 0".6.

* Magnitudes Graph

        m1 = 13.5 + 5 log d + 10.0 log r

---------------------------------------------------------------------

The orbital elements are published on M.P.E.C. 2017-Q116.
The magnitudes graphs are made with Comet for Windows.

---------------------------------------------------------------------

Copyright(C) Seiichi Yoshida (comet@aerith.net). All rights reserved.